DW1282 Weather Reports


time (UTC)temp
C
wind
direction
speed
KPH
gust
KPH
rain 1hr
cm
rain 24hr
cm
rain mn
cm
humidity
%
barometer
mb
20260506110155 13 208 19.3 38.6 0.00 0.00 0.00 86 1017.4
20260506104603 13 250 16.1 35.4 0.00 0.00 0.00 87 1017.2
20260506103048 12 218 14.5 35.4 0.00 0.00 0.00 89 1017.2
20260506101554 12 229 16.1 30.6 0.00 0.00 0.00 89 1017.3
20260506100041 12 225 6.4 25.7 0.00 0.00 0.00 90 1017.1
20260506094547 12 229 14.5 29.0 0.00 0.00 0.00 91 1016.9
20260506093037 11 233 8.0 29.0 0.00 0.00 0.00 92 1016.8
20260506091533 11 245 9.7 27.4 0.00 0.00 0.00 92 1016.5
20260506090033 11 208 8.0 32.2 0.00 0.00 0.00 92 1016.2
20260506084530 11 234 14.5 33.8 0.00 0.00 0.00 92 1016.1
20260506083028 12 247 14.5 38.6 0.00 0.00 0.00 92 1015.9
20260506081527 12 214 19.3 32.2 0.00 0.00 0.00 91 1015.8
20260506073024 11 226 12.9 27.4 0.00 0.00 0.00 91 1015.9
20260506071523 11 237 11.3 32.2 0.00 0.00 0.00 90 1015.7
20260506061521 11 227 12.9 25.7 0.00 0.00 0.00 89 1016.2
20260506044513 11 237 11.3 35.4 0.00 0.00 0.00 90 1016.1
20260506043011 11 216 11.3 38.6 0.00 0.00 0.00 90 1016.1
20260506041522 11 198 16.1 35.4 0.00 0.00 0.00 90 1016.0
20260506040006 11 220 16.1 32.2 0.00 0.00 0.00 90 1015.9
20260506034506 11 239 11.3 32.2 0.00 0.00 0.00 90 1015.8
20260506033002 11 227 16.1 32.2 0.00 0.00 0.00 91 1015.6
20260506031606 11 188 14.5 32.2 0.00 0.00 0.00 91 1015.5
20260506030054 11 236 16.1 33.8 0.00 0.00 0.00 91 1015.3
20260506024553 11 210 12.9 33.8 0.00 0.00 0.00 91 1015.5
20260506023053 10 208 12.9 32.2 0.00 0.00 0.00 91 1015.5
20260506021556 11 198 16.1 32.2 0.00 0.00 0.00 91 1015.5
20260506020052 11 209 14.5 30.6 0.00 0.00 0.00 91 1015.6
20260506014554 11 202 14.5 33.8 0.00 0.00 0.00 90 1015.4
20260506013048 11 185 17.7 32.2 0.00 0.00 0.00 90 1015.4
20260506011547 11 225 12.9 30.6 0.00 0.00 0.00 89 1015.2
20260506010047 11 229 17.7 33.8 0.00 0.00 0.00 88 1014.8
20260506004545 12 219 14.5 37.0 0.00 0.00 0.00 87 1014.7
20260506003043 12 213 16.1 35.4 0.00 0.00 0.00 85 1014.5
20260506001557 12 230 17.7 40.2 0.00 0.00 0.00 84 1014.2
20260506000044 12 226 14.5 38.6 0.00 0.00 0.00 81 1013.7
20260505234546 13 206 14.5 37.0 0.00 0.00 0.00 77 1013.5
20260505233034 13 203 16.1 37.0 0.00 0.00 0.00 75 1013.3
20260505231532 14 268 14.5 33.8 0.00 0.00 0.00 72 1013.2
20260505230034 15 222 11.3 27.4 0.00 0.00 0.00 68 1012.8
20260505224536 15 223 12.9 27.4 0.00 0.00 0.00 64 1012.8
20260505223039 16 221 12.9 27.4 0.00 0.00 0.00 61 1012.7
20260505221526 16 228 16.1 35.4 0.00 0.00 0.00 58 1012.7
20260505220035 17 212 9.7 38.6 0.00 0.00 0.00 55 1012.3
20260505214539 17 234 19.3 49.9 0.00 0.00 0.00 53 1012.2
20260505213033 18 225 16.1 33.8 0.00 0.00 0.00 52 1012.0
20260505211520 18 207 14.5 43.5 0.00 0.00 0.00 51 1012.3
20260505210019 19 223 16.1 37.0 0.00 0.00 0.00 49 1012.2
20260505204527 19 229 17.7 45.1 0.00 0.00 0.00 48 1012.1
20260505203019 20 227 16.1 51.5 0.00 0.00 0.00 48 1012.2
20260505201518 20 212 24.1 49.9 0.00 0.00 0.00 47 1012.1
20260505200017 20 226 17.7 56.3 0.00 0.00 0.00 47 1012.1
20260505194515 21 212 20.9 54.7 0.00 0.00 0.00 45 1011.7
20260505193034 21 239 17.7 45.1 0.00 0.00 0.00 45 1011.5
20260505191513 21 234 20.9 35.4 0.00 0.00 0.00 45 1011.4
20260505190027 21 224 14.5 40.2 0.00 0.00 0.00 46 1011.3
20260505184515 22 259 9.7 30.6 0.00 0.00 0.00 47 1011.4
20260505183017 21 210 12.9 37.0 0.00 0.00 0.00 48 1011.2
20260505181516 21 186 17.7 33.8 0.00 0.00 0.00 48 1011.4
20260505180017 22 217 11.3 35.4 0.00 0.00 0.00 49 1011.5
20260505174505 21 208 19.3 38.6 0.00 0.00 0.00 48 1011.6
20260505173002 21 231 16.1 29.0 0.00 0.00 0.00 50 1011.5
20260505171600 20 207 19.3 35.4 0.00 0.00 0.00 51 1011.7
20260505170109 20 206 14.5 33.8 0.00 0.00 0.00 53 1011.7
20260505164600 20 195 16.1 29.0 0.00 0.00 0.00 51 1011.8
20260505163107 20 216 14.5 27.4 0.00 0.00 0.00 52 1011.8
20260505161556 20 210 14.5 27.4 0.00 0.00 0.00 54 1011.5
20260505153104 18 212 12.9 22.5 0.00 0.03 0.00 55 1011.7
20260505151547 18 214 12.9 35.4 0.00 0.03 0.00 55 1011.8
20260505124521 13 279 14.5 25.7 0.00 0.03 0.00 64 1011.7
20260505123021 12 231 11.3 20.9 0.00 0.03 0.00 65 1011.6
20260505121513 12 256 9.7 19.3 0.00 0.03 0.00 68 1011.4
20260505120008 11 252 8.0 19.3 0.00 0.03 0.00 72 1011.3
20260505114504 11 239 8.0 27.4 0.00 0.03 0.00 74 1011.3
20260505113100 10 265 11.3 25.7 0.00 0.03 0.00 75 1011.3
20260505111601 10 248 6.4 27.4 0.00 0.03 0.00 77 1011.3